Погода в Славгороде

Погода в Славгороде : погода сейчас, прогноз погоды и архив. Всё, что Вы хотите узнать о погоде в Славгороде!

Хотите узнать прогноз погоды в Славгороде? Тогда Вам сюда: Погода в Славгороде

Поиск расширенной информации на нашем сайте:

Полезная информация: Лучшие всесезонные легковые шины покупайте только у надежного производителя Goodyear

Другие новости

Новости СМИ2

Главная страница сайта

Новости сайта

03.07.2017

Напоминаем, что на нашем специализированном сайте Метеоцентр.Азия вы можете получить высокодетализированные автоматические прогнозы погоды по пунктам России, СНГ и мира в авиационном формате (включающие направление и скорость ветра, видимость, явления погоды, количество и форму облачности, нижнюю и верхнюю границу облачности).

Рекомендуем: Блок излучения купить аппарат лазерной терапии УзорМед.

Погода в Славгороде - сегодня

Время (UTC), дата Ветер
(°,м/с) 
Видим.   Явления Облачность Т
(°С)
Тd
(°С)
f(%) Тe
(°С)
Pmin
(гПа)
dP
(гПа)
Po
(мм)
O2
(г/м3)
Тmin Tmax R s Состояние
почвы
06 20.07.17 290 (З) 20000 м    8/8 1020 м кучево-дожд. 
[Cb cap]
+23 +13.1 54 +29  1010.9  747  275           
09 20.07.17 310 (СЗ) 4{10}  20000 м    6/6 960 м 
[Cu med, cong]
+24.7 +10.8 42 +27  1010  -0.9  747  274           
12 20.07.17 300 (СЗ) 20000 м    8/8 1000 м кучево-дожд. 
[Cb cap]
+23.9 +10.7 43 +26  1010.2  0.2  747  275    +25.5       
15 20.07.17 320 (СЗ) 20000 м    3/0 верхняя 
[Ci sp]
+19.5 +13.1 66 +27  1010.8  0.4  747  278           
18 20.07.17 200 (Ю) 20000 м    3/0 верхняя 
[Ci sp]
+15.5 +13 85 +22  1011.5  0.4  747  282           
21 20.07.17 300 (СЗ) 20000 м    3/0 верхняя 
[Ci sp]
+15 +12.1 83 +20  1011.3  -0.2  747  283           
00 21.07.17 190 (Ю) 20000 м    3/0 верхняя 
[Ci sp]
+14.1 +11.9 87 +19  1012.1  0.8  748  284  +13.7        сухая 
03 21.07.17 290 (З) 20000 м    6/0 верхняя 
[Ci sp]
+22.1 +13.9 60 +29  1012.3  0.5  748  276           
06 21.07.17 320 (СЗ) 20000 м    10/5 600 м верхняя 
[Cu med, cong|Ci sp]
+25.1 +11.8 43 +29  1011.7  -0.4  748  274           
09 21.07.17 310 (СЗ) 3{11}  20000 м  в посл. час гроза{ливн. осадки}  10/8 660 м кучево-дожд., верхняя 
[Cb cap|Ci sp]
+20.9 +14.8 68 +29  1012  0.1  748  277           
12 21.07.17 360 (С) 20000 м  {гроза, ливн. осадки}  8/3 600 м верхняя 
[Cu med, cong|Ci sp]
+24.1 +12 47 +28  1011.1  -0.7  748  275    +26.3  0.0     
15 21.07.17 100 (В) 20000 м    3/0 верхняя 
[Ci sp]
+20.3 +13 63 +26  1011.6  0.3  748  278           
18 21.07.17 120 (ЮВ) 20000 м    ясно 
+17 +12.7 76 +23  1011.4  -0.4  747  281           
21 21.07.17 030 (СВ) 20000 м    10/0 верхняя 
[Ci sp]
+15.7 +12.8 83 +22  1011.1  -0.4  747  282           
00 22.07.17 тихо ()   20000 м    3/0 верхняя 
[Ci sp]
+15.9 +13.6 86 +22  1011.4  0.4  747  282  +15.2        сухая 
03 22.07.17 050 (СВ) 20000 м    8/0 средняя, верхняя 
[Ac trans|Ci sp]
+22.1 +15.4 66 +32  1011.6  0.5  748  276           
06 22.07.17 050 (СВ) 20000 м  гроза без осадков  9/8 600 м кучево-дожд., верхняя 
[Cb cap|Ci sp]
+22.7 +14.2 59 +30  1011.2  -0.4  748  275           
09 22.07.17 180 (Ю) 20000 м  {гроза, ливн. осадки}  10/4 600 м кучево-дожд., верхняя 
[Cb cap|Ci sp]
+20.5 +14.7 69 +29  1012.2  0.9  748  277           
12 22.07.17 300 (СЗ) 20000 м  {гроза, ливн. осадки}  8/3 600 м кучево-дожд., верхняя 
[Cb cap|Ci sp]
+23.8 +13.3 52 +30  1011.5  -0.6  748  275    +25.2  0.0     
15 22.07.17 290 (З) 20000 м    8/0 средняя, верхняя 
[Ac trans|Ci sp]
+18.7 +14.3 76 +28  1011.9  0.2  748  279           
18 22.07.17 310 (СЗ) 20000 м    3/0 верхняя 
[Ci sp]
+16.3 +14.3 88 +26  1012  748  281           
21 22.07.17 240 (ЮЗ) 20000 м    3/0 верхняя 
[Ci sp]
+13.7 +12.5 92 +20  1011.6  -0.6  747  284           
00 23.07.17 260 (З) 20000 м    1/0 верхняя 
[Ci sp]
+14.7 +13.1 90 +21  1011.4  -0.1  747  283  +13.1        сухая 
03 23.07.17 300 (СЗ) 20000 м    ясно 
+22.5 +14.9 62 +31  1011.2  0.2  748  275           
06 23.07.17 330 (СЗ) 20000 м    8/8 1020 м 
[Cu med, cong]
+25.8 +12.3 43 +30  1010.8  -0.3  747  273           
Время (UTC), дата Ветер
(°,м/с) 
Видим.   Явления Облачность Т
(°С)
Тd
(°С)
f(%) Тe
(°С)
Pmin
(гПа)
dP
(гПа)
Po
(мм)
O2
(г/м3)
Тmin Tmax R s Состояние
почвы

Для получения пояснительной информации подведите курсор к названию столбца.

ПОГОДА в Славгороде - архив

Всё, что Вы хотите узнать о погоде в Славгороде - удобно и подробно!

Выберите нужную дату (начиная с 1 января 2015* года) и нажмите кнопку "Найти".
Будут отображены архивные сводки погоды по пункту Славгород, начиная с указанной даты.


Отображать данные в формате CSV (для использования в таблицах Excel)


Внимание! Наш архив погоды предназначен исключительно для личного некоммерческого использования в познавательных целях. Если Вам необходимы официальные справки о состоянии погоды (для производственных, юридических, коммерческих и т.п. целей), обращайтесь в органы Росгидромета.

*Примечание: данная дата относится к архиву по метеостанциям СССР (Россия, СНГ, Балтия).
Архив по метеостанциям Зарубежной Европы и Азии (кроме Китая) хранится 10 дней, по другим регионам земного шара (Китай, Африка, Америка, Австралия, Океания) - 1 день.

Славгород - район местоположения метеостанции


Название, широта, долгота, высота метеостанции:
Славгород 53°ш. 78.6°д. 126 м над ур. моря [Российская Федерация]

Дополнительная информация

В oтличие oт бoльшинства пoгoдных сайтoв мы публикуем пoдрoбную метеoинфoрмацию в детальнoм прoфессиoнальнoм фoрмате.

Характеристики температуры и влажнoсти вoздуха измеряются на высoте 2 м в тени вдали oт зданий и деревьев.
Скoрoсть ветра измеряется на высoте 10 м (на урoвне рoста челoвека скoрoсть ветра ниже в 1.5-2 раза). Если метеoстанция нахoдится в гoрoде или в лесу, тo скoрoсть ветра занижена на 2-4 м/с пo сравнению с oткрытым местoм. Скoрoсть ветра над акватoриями крупных рек и oзёр, а также на вершинах хoлмoв на 2-5 м/с выше, чем в oбычных услoвиях.
Атмoсфернoе давление в разных тoчках местнoсти мoжет значительнo oтличаться oт давления на метеoстанции, в зависимoсти oт услoвий рельефа (при пoдъёме на 10 м давление пoнижается примернo на 1 мм рт.ст.).